| time (UTC) | temp F | wind direction | speed MPH | gust MPH | rain 1hr in | rain 24hr in | rain mn in | humidity % | barometer mb |
| 20260507194510 | 85 | 148 | 7.0 | 14.0 | 0.00 | 0.06 | 0.06 | 72 | 1013.0 |
| 20260507193011 | 85 | 123 | 9.0 | 18.0 | 0.00 | 0.06 | 0.06 | 72 | 1013.2 |
| 20260507191508 | 85 | 139 | 8.0 | 16.0 | 0.00 | 0.06 | 0.06 | 71 | 1013.3 |
| 20260507190024 | 85 | 89 | 8.0 | 14.0 | 0.00 | 0.06 | 0.06 | 72 | 1013.4 |
| 20260507184524 | 85 | 132 | 10.0 | 13.0 | 0.00 | 0.06 | 0.06 | 72 | 1013.6 |
| 20260507183021 | 85 | 160 | 8.0 | 15.0 | 0.00 | 0.06 | 0.06 | 72 | 1013.6 |
| 20260507181515 | 84 | 134 | 8.0 | 16.0 | 0.00 | 0.06 | 0.06 | 73 | 1013.7 |
| 20260507180013 | 84 | 122 | 8.0 | 17.0 | 0.00 | 0.06 | 0.06 | 73 | 1014.0 |
| 20260507174508 | 85 | 138 | 11.0 | 14.0 | 0.00 | 0.06 | 0.06 | 72 | 1013.9 |
| 20260507173008 | 85 | 150 | 8.0 | 17.0 | 0.00 | 0.06 | 0.06 | 72 | 1014.3 |
| 20260507171525 | 85 | 136 | 12.0 | 17.0 | 0.00 | 0.06 | 0.06 | 71 | 1014.5 |
| 20260507170039 | 85 | 123 | 10.0 | 15.0 | 0.00 | 0.06 | 0.06 | 72 | 1014.8 |
| 20260507164519 | 85 | 153 | 9.0 | 16.0 | 0.00 | 0.06 | 0.06 | 70 | 1015.0 |
| 20260507163020 | 85 | 134 | 10.0 | 16.0 | 0.00 | 0.06 | 0.06 | 71 | 1015.1 |
| 20260507161514 | 84 | 133 | 6.0 | 17.0 | 0.00 | 0.06 | 0.06 | 73 | 1015.3 |
| 20260507160014 | 85 | 112 | 9.0 | 14.0 | 0.00 | 0.06 | 0.06 | 74 | 1015.4 |
| 20260507154526 | 84 | 122 | 9.0 | 12.0 | 0.00 | 0.06 | 0.06 | 73 | 1015.5 |
| 20260507153025 | 84 | 143 | 10.0 | 16.0 | 0.00 | 0.06 | 0.06 | 74 | 1015.6 |
| 20260507151523 | 84 | 136 | 10.0 | 15.0 | 0.00 | 0.06 | 0.06 | 74 | 1015.6 |
| 20260507150020 | 84 | 114 | 6.0 | 15.0 | 0.00 | 0.06 | 0.06 | 74 | 1015.7 |
| 20260507144518 | 84 | 124 | 9.0 | 13.0 | 0.00 | 0.06 | 0.06 | 73 | 1015.7 |
| 20260507143031 | 84 | 154 | 7.0 | 14.0 | 0.06 | 0.06 | 0.06 | 75 | 1015.7 |
| 20260507141513 | 83 | 117 | 7.0 | 15.0 | 0.06 | 0.06 | 0.06 | 78 | 1015.8 |
| 20260507140030 | 82 | 120 | 8.0 | 13.0 | 0.06 | 0.06 | 0.06 | 82 | 1015.9 |
| 20260507134528 | 79 | 81 | 2.0 | 8.0 | 0.06 | 0.06 | 0.06 | 85 | 1015.8 |
| 20260507133028 | 82 | 128 | 7.0 | 14.0 | 0.00 | 0.00 | 0.00 | 76 | 1015.6 |
| 20260507131528 | 83 | 145 | 6.0 | 13.0 | 0.00 | 0.00 | 0.00 | 74 | 1015.6 |
| 20260507130020 | 83 | 110 | 11.0 | 14.0 | 0.00 | 0.00 | 0.00 | 73 | 1015.6 |
| 20260507124515 | 83 | 167 | 4.0 | 9.0 | 0.00 | 0.00 | 0.00 | 74 | 1015.4 |
| 20260507123029 | 83 | 79 | 3.0 | 11.0 | 0.00 | 0.00 | 0.00 | 75 | 1015.3 |
| 20260507121531 | 83 | 110 | 6.0 | 9.0 | 0.00 | 0.00 | 0.00 | 75 | 1015.1 |
| 20260507120038 | 82 | 120 | 3.0 | 8.0 | 0.00 | 0.00 | 0.00 | 77 | 1014.9 |
| 20260507114526 | 81 | 136 | 4.0 | 8.0 | 0.00 | 0.00 | 0.00 | 80 | 1014.9 |
| 20260507113023 | 80 | 124 | 4.0 | 7.0 | 0.00 | 0.00 | 0.00 | 81 | 1014.8 |
| 20260507111524 | 79 | 83 | 4.0 | 10.0 | 0.00 | 0.00 | 0.00 | 82 | 1014.7 |
| 20260507110018 | 79 | 10 | 4.0 | 10.0 | 0.00 | 0.00 | 0.00 | 83 | 1014.7 |
| 20260507104527 | 78 | 130 | 2.0 | 8.0 | 0.00 | 0.00 | 0.00 | 85 | 1014.5 |
| 20260507103026 | 78 | 88 | 3.0 | 7.0 | 0.00 | 0.00 | 0.00 | 85 | 1014.3 |
| 20260507101507 | 78 | 68 | 2.0 | 10.0 | 0.00 | 0.00 | 0.00 | 84 | 1014.3 |
| 20260507100007 | 78 | 33 | 2.0 | 7.0 | 0.00 | 0.00 | 0.00 | 83 | 1014.3 |
| 20260507094502 | 78 | 46 | 1.0 | 5.0 | 0.00 | 0.00 | 0.00 | 83 | 1014.3 |
| 20260507093022 | 78 | 61 | 3.0 | 7.0 | 0.00 | 0.00 | 0.00 | 83 | 1014.3 |
| 20260507091519 | 77 | 359 | 1.0 | 4.0 | 0.00 | 0.00 | 0.00 | 83 | 1014.3 |
| 20260507090020 | 78 | 337 | 1.0 | 5.0 | 0.00 | 0.00 | 0.00 | 83 | 1014.2 |
| 20260507084514 | 78 | 356 | 1.0 | 7.0 | 0.00 | 0.00 | 0.00 | 83 | 1014.2 |
| 20260507083006 | 78 | 331 | 1.0 | 5.0 | 0.00 | 0.00 | 0.00 | 82 | 1014.1 |
| 20260507081505 | 78 | 67 | 2.0 | 8.0 | 0.00 | 0.00 | 0.00 | 83 | 1014.0 |
| 20260507080023 | 78 | 82 | 2.0 | 7.0 | 0.00 | 0.00 | 0.00 | 83 | 1013.8 |
| 20260507074544 | 78 | 53 | 0.0 | 4.0 | 0.00 | 0.00 | 0.00 | 83 | 1014.0 |
| 20260507073019 | 78 | 330 | 2.0 | 7.0 | 0.00 | 0.00 | 0.00 | 83 | 1014.1 |
| 20260507071514 | 78 | 76 | 2.0 | 6.0 | 0.00 | 0.00 | 0.00 | 83 | 1014.1 |
| 20260507070019 | 78 | 30 | 4.0 | 8.0 | 0.00 | 0.00 | 0.00 | 83 | 1014.2 |
| 20260507064509 | 78 | 334 | 1.0 | 6.0 | 0.00 | 0.00 | 0.00 | 83 | 1014.2 |
| 20260507063007 | 78 | 59 | 3.0 | 8.0 | 0.00 | 0.00 | 0.00 | 84 | 1014.4 |
| 20260507061524 | 78 | 30 | 2.0 | 5.0 | 0.00 | 0.00 | 0.00 | 84 | 1014.6 |
| 20260507060025 | 78 | 12 | 0.0 | 7.0 | 0.00 | 0.00 | 0.00 | 84 | 1014.7 |
| 20260507054522 | 78 | 39 | 1.0 | 4.0 | 0.00 | 0.00 | 0.00 | 83 | 1014.8 |
| 20260507053015 | 78 | 60 | 1.0 | 4.0 | 0.00 | 0.00 | 0.00 | 84 | 1015.2 |
| 20260507051512 | 77 | 39 | 1.0 | 3.0 | 0.00 | 0.00 | 0.00 | 85 | 1015.4 |
| 20260507050024 | 77 | 336 | 2.0 | 3.0 | 0.00 | 0.00 | 0.00 | 83 | 1015.9 |
| 20260507044510 | 78 | 48 | 0.0 | 2.0 | 0.00 | 0.00 | 0.00 | 83 | 1016.0 |
| 20260507043024 | 78 | 6 | 2.0 | 3.0 | 0.00 | 0.00 | 0.00 | 81 | 1016.3 |
| 20260507041522 | 79 | 296 | 1.0 | 3.0 | 0.00 | 0.00 | 0.00 | 79 | 1016.3 |
| 20260507040021 | 79 | 345 | 1.0 | 3.0 | 0.00 | 0.00 | 0.00 | 79 | 1016.4 |
| 20260507034519 | 79 | 62 | 1.0 | 3.0 | 0.00 | 0.00 | 0.00 | 82 | 1016.7 |
| 20260507033028 | 79 | 359 | 1.0 | 2.0 | 0.00 | 0.00 | 0.00 | 82 | 1016.7 |
| 20260507031509 | 79 | 345 | 1.0 | 4.0 | 0.00 | 0.00 | 0.00 | 81 | 1016.6 |
| 20260507030027 | 79 | 356 | 1.0 | 8.0 | 0.00 | 0.00 | 0.00 | 80 | 1016.7 |
| 20260507024529 | 79 | 13 | 2.0 | 4.0 | 0.00 | 0.00 | 0.00 | 81 | 1016.5 |
| 20260507023029 | 79 | 359 | 2.0 | 4.0 | 0.00 | 0.00 | 0.00 | 81 | 1016.5 |
| 20260507021524 | 79 | 335 | 2.0 | 3.0 | 0.00 | 0.00 | 0.00 | 80 | 1016.4 |
| 20260507020022 | 79 | 24 | 2.0 | 3.0 | 0.00 | 0.00 | 0.00 | 80 | 1016.4 |
| 20260507014519 | 80 | 355 | 1.0 | 4.0 | 0.00 | 0.00 | 0.00 | 80 | 1016.2 |
| 20260507013014 | 80 | 1 | 2.0 | 6.0 | 0.00 | 0.00 | 0.00 | 79 | 1016.1 |
| 20260507011533 | 80 | 343 | 1.0 | 5.0 | 0.00 | 0.00 | 0.00 | 80 | 1016.0 |
| 20260507010032 | 80 | 359 | 1.0 | 3.0 | 0.00 | 0.00 | 0.00 | 79 | 1015.9 |
| 20260507004525 | 80 | 13 | 1.0 | 4.0 | 0.00 | 0.00 | 0.00 | 79 | 1015.8 |
| 20260507003022 | 80 | 360 | 2.0 | 3.0 | 0.00 | 0.00 | 0.00 | 78 | 1015.7 |
| 20260507001525 | 80 | 39 | 2.0 | 3.0 | 0.00 | 0.00 | 0.00 | 78 | 1015.6 |
| 20260507000030 | 81 | 37 | 1.0 | 3.0 | 0.00 | 0.00 | 0.00 | 77 | 1015.5 |
| 20260506234528 | 81 | 18 | 1.0 | 3.0 | 0.00 | 0.00 | 0.00 | 76 | 1015.3 |
| 20260506233027 | 81 | 359 | 2.0 | 3.0 | 0.00 | 0.00 | 0.00 | 76 | 1015.2 |
| 20260506231525 | 81 | 63 | 1.0 | 3.0 | 0.00 | 0.00 | 0.00 | 75 | 1015.1 |
| 20260506230031 | 81 | 114 | 2.0 | 6.0 | 0.00 | 0.00 | 0.00 | 75 | 1015.0 |
| 20260506224522 | 81 | 131 | 2.0 | 6.0 | 0.00 | 0.00 | 0.00 | 75 | 1014.9 |
| 20260506223020 | 81 | 105 | 3.0 | 8.0 | 0.00 | 0.00 | 0.00 | 75 | 1014.6 |
| 20260506221503 | 82 | 130 | 4.0 | 6.0 | 0.00 | 0.00 | 0.00 | 75 | 1014.5 |
| 20260506220014 | 82 | 133 | 4.0 | 9.0 | 0.00 | 0.00 | 0.00 | 74 | 1014.4 |
| 20260506214505 | 83 | 117 | 5.0 | 9.0 | 0.00 | 0.00 | 0.00 | 73 | 1014.4 |
| 20260506213003 | 83 | 127 | 7.0 | 11.0 | 0.00 | 0.00 | 0.00 | 73 | 1014.5 |
| 20260506211508 | 84 | 82 | 5.0 | 9.0 | 0.00 | 0.00 | 0.00 | 72 | 1014.3 |
| 20260506210009 | 84 | 133 | 5.0 | 10.0 | 0.00 | 0.00 | 0.00 | 73 | 1014.2 |
| 20260506204506 | 84 | 131 | 7.0 | 12.0 | 0.00 | 0.00 | 0.00 | 73 | 1014.2 |
| 20260506203008 | 84 | 169 | 7.0 | 12.0 | 0.00 | 0.00 | 0.00 | 74 | 1014.1 |
| 20260506201503 | 84 | 112 | 6.0 | 12.0 | 0.00 | 0.00 | 0.00 | 72 | 1014.0 |
| 20260506200007 | 85 | 139 | 6.0 | 12.0 | 0.00 | 0.00 | 0.00 | 71 | 1014.1 |